Volver al catálogo

DELTA 1 DEB

ActivoSSO
NORAD 42091·DEBRIS·🇺🇸 United States

Lanzado Dec 15, 1968 desde Vandenberg Space Force Base

Loading…

Próximos Pases (próximas 24 horas)

TLE

ActualizadoSource: Space-Track

Época: Sep 12, 2026, 16:26 UTC

1 42091U 68114T   26255.68537233  .00000013  00000-0  37779-3 0  9993
2 42091 101.4960 228.4240 0036357 131.4785  41.5809 12.47227537583029

Sigue DELTA 1 DEB en tiempo real con AllMySat

Download on the App Store